COSMOS 1275 DEB, 12713

Orbit data source: Space-Track

COSMOS 1275 DEB, 12713 is space debris in LEO originally from a launch on Thu, 04 Jun 1981 UTC launched from the Plesetsk Missile And Space Complex (PKMTR). Debris objects in space refer to the collection of defunct objects orbiting the Earth. Examples of debris include non-operational satellites, rocket bodies, and fragments generated from explosions, collisions, or faulty payload assembly.

Loading next visibility...
Identifier
12713, 1981-053BH
Orbit
LEO
Country
Flag of CISCIS
Related business
Manufacturer
Unknown
Mission
Spacecraft
Bus & Motor
Unknown
Mass
Unknown
Launch date (UTC)
1981-06-04 (45 years ago)
Launch vehicle
Unknown
Launch site
Plesetsk Missile And Space Complex (PKMTR)
Object type
Payload
Rocket body
Debris
Shape & HBR
Unknown shape, 0.1 m
Radar Cross Section
Medium (>0.1 m² and <1 m²)

Expand to show TLE details & history
Last TLE update: 2 days ago

TLE from 2 days ago
0 COSMOS 1275 DEB
1 12713U 81053BH  26171.29934898  .00002227  00000-0  81772-3 0  9991
2 12713  82.9471  28.2397 0016306 124.1002 236.1736 14.32304417291430
Epoch: 2026-06-20T07:11Z
TLE epoch observation values (Epoch: 2026-06-20T07:11:03.751Z)
Latitude
-0.00005°
Longitude
11.9581°
Altitude
793.534 km
Speed
7.453 km/s
True Right ascension
01h 52m 57s
True Declination
0° 00' 00"
Sunlit
Object was in daylight at epoch
Visualization orbit readout
Latitude
Unknown
Longitude
Unknown
Altitude
Unknown
Speed
Unknown
Apparent Right ascension
Unknown
Apparent Declination
Unknown
Sunlit
N/A
Visualization observer readout
Local Sidereal Time
22:43:23
Azimuth
Unknown
Elevation
Unknown
Doppler factor
Unknown
Orbital elements
Apogee altitude
792.782 km
Perigee altitude
769.434 km
Semi-major axis
7,159.245 km
Eccentricity
0.00163
Inclination
82.9471°
RAAN
28.2397°
Arg. of periapsis
124.1002°
True anomaly
236.01855°
Mean anomaly
236.1736°
Eccentric anomaly
236.09606°
Mean motion
3.58296 °/min
Orbital period
100.48 mins
BSTAR
0.00081772
Loading maneuver chart data...
Computing Atmospheric mass density...

Documentation

Showing up to 5 results
|